Starlink 32212

operational
NORAD ID: 60256 Int'l Des: 2024-131 Owner: SPXS Country: US Constellation: starlink
LEOCIRCULAR

About Starlink 32212

Description loading...

Live Position

Loading 3D Globe...

Upcoming Passes

Altitude History

Altitude vs Time

uPlot chart will show altitude changes over time

Two-Line Element Set

1 60256U 24131B 25350.27482392 .00000611 00000-0 32752-4 0 9993
2 60256 53.1612 80.1674 0000924 83.2109 276.8997 15.30198811 78946
Epoch: Dec 16, 2025 • Age: 19 hours

Current Status

Altitude 482.4 km
Velocity 7.62 km/s
Sub-Earth Point -23.99°S, 47.85°W
Launch Date Jul 27, 2024
Age 1.3 years
Type internet

Technical Details

Classification Payload
Mass 730.00 kg
Dry Mass 700.00 kg
Total Mass 730.00 kg
Length 0.30 m
Diameter 4.10 m
Span 29.00 m
Shape Box + pan
Manufacturer SPXS
Bus Type Starlink V2M
Phase Status In Orbit
Owner/State SPXS/US

Large Constellations

Loading constellations...